| time (UTC) | temp F | wind direction | speed knots | gust knots | rain 1hr in | rain 24hr in | rain mn in | humidity % | barometer mb |
| 20260504232030 | 69 | 239 | 0.9 | 5.2 | 0.00 | 0.00 | 0.00 | 32 | 1005.0 |
| 20260504231526 | 70 | 134 | 0.0 | 1.7 | 0.00 | 0.00 | 0.00 | 32 | 1004.7 |
| 20260504231022 | 70 | 97 | 0.9 | 5.2 | 0.00 | 0.00 | 0.00 | 31 | 1004.8 |
| 20260504230519 | 71 | 151 | 0.0 | 2.6 | 0.00 | 0.00 | 0.00 | 31 | 1004.7 |
| 20260504230018 | 71 | 164 | 0.9 | 1.7 | 0.00 | 0.00 | 0.00 | 31 | 1004.4 |
| 20260504225514 | 71 | 163 | 1.7 | 2.6 | 0.00 | 0.00 | 0.00 | 31 | 1004.6 |
| 20260504225011 | 72 | 193 | 3.5 | 5.2 | 0.00 | 0.00 | 0.00 | 30 | 1004.4 |
| 20260504224508 | 72 | 195 | 1.7 | 2.6 | 0.00 | 0.00 | 0.00 | 31 | 1004.1 |
| 20260504224005 | 71 | 102 | 2.6 | 2.6 | 0.00 | 0.00 | 0.00 | 30 | 1004.3 |
| 20260504223501 | 71 | 327 | 0.9 | 5.2 | 0.00 | 0.00 | 0.00 | 30 | 1004.3 |
| 20260504222957 | 72 | 31 | 1.7 | 5.2 | 0.00 | 0.00 | 0.00 | 30 | 1004.2 |
| 20260504222455 | 72 | 227 | 1.7 | 7.8 | 0.00 | 0.00 | 0.00 | 30 | 1004.3 |
| 20260504221952 | 73 | 315 | 3.5 | 5.2 | 0.00 | 0.00 | 0.00 | 29 | 1004.3 |
| 20260504221449 | 73 | 280 | 5.2 | 6.1 | 0.00 | 0.00 | 0.00 | 29 | 1004.2 |
| 20260504220946 | 72 | 206 | 3.5 | 11.3 | 0.00 | 0.00 | 0.00 | 29 | 1004.3 |
| 20260504220442 | 73 | 94 | 1.7 | 7.0 | 0.00 | 0.00 | 0.00 | 29 | 1004.3 |
| 20260504215939 | 73 | 278 | 5.2 | 8.7 | 0.00 | 0.00 | 0.00 | 29 | 1004.2 |
| 20260504215436 | 73 | 276 | 2.6 | 11.3 | 0.00 | 0.00 | 0.00 | 28 | 1004.4 |
| 20260504214933 | 73 | 290 | 1.7 | 6.1 | 0.00 | 0.00 | 0.00 | 29 | 1004.2 |
| 20260504214429 | 72 | 260 | 2.6 | 5.2 | 0.00 | 0.00 | 0.00 | 29 | 1004.3 |
| 20260504213926 | 72 | 310 | 7.8 | 9.6 | 0.00 | 0.00 | 0.00 | 29 | 1004.1 |
| 20260504213422 | 73 | 187 | 2.6 | 3.5 | 0.00 | 0.00 | 0.00 | 28 | 1004.4 |
| 20260504212920 | 73 | 163 | 3.5 | 8.7 | 0.00 | 0.00 | 0.00 | 28 | 1004.2 |
| 20260504212415 | 74 | 312 | 7.0 | 13.0 | 0.00 | 0.00 | 0.00 | 28 | 1004.2 |
| 20260504211913 | 73 | 336 | 8.7 | 9.6 | 0.00 | 0.00 | 0.00 | 28 | 1004.4 |
| 20260504211409 | 74 | 290 | 6.1 | 8.7 | 0.00 | 0.00 | 0.00 | 28 | 1004.4 |
| 20260504210906 | 74 | 266 | 2.6 | 6.1 | 0.00 | 0.00 | 0.00 | 27 | 1004.3 |
| 20260504210403 | 74 | 291 | 1.7 | 3.5 | 0.00 | 0.00 | 0.00 | 27 | 1004.3 |
| 20260504205900 | 74 | 139 | 3.5 | 6.1 | 0.00 | 0.00 | 0.00 | 27 | 1004.2 |
| 20260504205358 | 73 | 235 | 4.3 | 7.0 | 0.00 | 0.00 | 0.00 | 28 | 1004.2 |
| 20260504204856 | 73 | 306 | 5.2 | 7.8 | 0.00 | 0.00 | 0.00 | 28 | 1004.4 |
| 20260504204354 | 73 | 320 | 3.5 | 6.1 | 0.00 | 0.00 | 0.00 | 29 | 1004.3 |
| 20260504203854 | 73 | 184 | 3.5 | 6.1 | 0.00 | 0.00 | 0.00 | 29 | 1004.2 |
| 20260504203350 | 71 | 202 | 0.9 | 5.2 | 0.00 | 0.00 | 0.00 | 30 | 1004.4 |
| 20260504202846 | 72 | 291 | 1.7 | 9.6 | 0.00 | 0.00 | 0.00 | 28 | 1004.4 |
| 20260504202343 | 73 | 254 | 3.5 | 9.6 | 0.00 | 0.00 | 0.00 | 28 | 1004.4 |
| 20260504201839 | 73 | 238 | 6.1 | 12.2 | 0.00 | 0.00 | 0.00 | 28 | 1004.4 |
| 20260504201337 | 72 | 302 | 1.7 | 9.6 | 0.00 | 0.00 | 0.00 | 29 | 1004.3 |
| 20260504200834 | 73 | 294 | 3.5 | 7.0 | 0.00 | 0.00 | 0.00 | 29 | 1004.6 |
| 20260504200331 | 74 | 216 | 1.7 | 6.1 | 0.00 | 0.00 | 0.00 | 29 | 1004.3 |
| 20260504195827 | 73 | 241 | 1.7 | 6.1 | 0.00 | 0.00 | 0.00 | 29 | 1004.3 |
| 20260504195323 | 73 | 230 | 12.2 | 14.8 | 0.00 | 0.00 | 0.00 | 27 | 1004.5 |
| 20260504194820 | 73 | 235 | 2.6 | 7.0 | 0.00 | 0.00 | 0.00 | 29 | 1004.5 |
| 20260504194316 | 74 | 309 | 9.6 | 15.6 | 0.00 | 0.00 | 0.00 | 27 | 1004.4 |
| 20260504193812 | 73 | 244 | 3.5 | 5.2 | 0.00 | 0.00 | 0.00 | 28 | 1004.3 |
| 20260504193309 | 73 | 330 | 7.8 | 9.6 | 0.00 | 0.00 | 0.00 | 28 | 1004.5 |
| 20260504192808 | 74 | 168 | 1.7 | 6.1 | 0.00 | 0.00 | 0.00 | 28 | 1004.5 |
| 20260504192305 | 73 | 208 | 4.3 | 11.3 | 0.00 | 0.00 | 0.00 | 29 | 1004.5 |
| 20260504191804 | 72 | 270 | 3.5 | 7.0 | 0.00 | 0.00 | 0.00 | 29 | 1004.4 |
| 20260504191301 | 73 | 262 | 4.3 | 6.1 | 0.00 | 0.00 | 0.00 | 29 | 1004.5 |
| 20260504190756 | 73 | 269 | 4.3 | 7.8 | 0.00 | 0.00 | 0.00 | 28 | 1004.5 |
| 20260504190253 | 71 | 235 | 3.5 | 7.0 | 0.00 | 0.00 | 0.00 | 29 | 1004.4 |
| 20260504185749 | 71 | 284 | 3.5 | 5.2 | 0.00 | 0.00 | 0.00 | 29 | 1004.6 |
| 20260504185246 | 72 | 265 | 4.3 | 13.9 | 0.00 | 0.00 | 0.00 | 28 | 1004.5 |
| 20260504184742 | 73 | 294 | 7.8 | 13.0 | 0.00 | 0.00 | 0.00 | 28 | 1004.8 |
| 20260504184238 | 71 | 260 | 0.9 | 7.8 | 0.00 | 0.00 | 0.00 | 30 | 1004.8 |
| 20260504183734 | 72 | 111 | 1.7 | 5.2 | 0.00 | 0.00 | 0.00 | 29 | 1004.6 |
| 20260504183231 | 71 | 298 | 4.3 | 6.1 | 0.00 | 0.00 | 0.00 | 28 | 1004.6 |
| 20260504182729 | 73 | 283 | 2.6 | 11.3 | 0.00 | 0.00 | 0.00 | 27 | 1004.8 |
| 20260504182226 | 73 | 202 | 2.6 | 11.3 | 0.00 | 0.00 | 0.00 | 27 | 1004.9 |
| 20260504181724 | 73 | 221 | 2.6 | 8.7 | 0.00 | 0.00 | 0.00 | 29 | 1004.8 |
| 20260504181221 | 72 | 207 | 4.3 | 6.1 | 0.00 | 0.00 | 0.00 | 27 | 1004.8 |
| 20260504180720 | 72 | 177 | 2.6 | 13.0 | 0.00 | 0.00 | 0.00 | 29 | 1005.0 |
| 20260504180218 | 72 | 276 | 3.5 | 7.0 | 0.00 | 0.00 | 0.00 | 28 | 1004.9 |
| 20260504175716 | 73 | 223 | 5.2 | 13.9 | 0.00 | 0.00 | 0.00 | 27 | 1004.7 |
| 20260504175212 | 72 | 206 | 2.6 | 3.5 | 0.00 | 0.00 | 0.00 | 29 | 1004.8 |
| 20260504174710 | 72 | 277 | 3.5 | 7.8 | 0.00 | 0.00 | 0.00 | 27 | 1004.8 |
| 20260504174208 | 71 | 296 | 0.9 | 5.2 | 0.00 | 0.00 | 0.00 | 29 | 1005.1 |
| 20260504173704 | 71 | 238 | 5.2 | 9.6 | 0.00 | 0.00 | 0.00 | 29 | 1005.0 |
| 20260504173201 | 71 | 224 | 3.5 | 16.5 | 0.00 | 0.00 | 0.00 | 28 | 1004.9 |
| 20260504172658 | 70 | 207 | 1.7 | 6.1 | 0.00 | 0.00 | 0.00 | 29 | 1004.9 |
| 20260504172154 | 70 | 126 | 2.6 | 6.1 | 0.00 | 0.00 | 0.00 | 30 | 1005.0 |
| 20260504171650 | 70 | 287 | 3.5 | 11.3 | 0.00 | 0.00 | 0.00 | 28 | 1005.1 |
| 20260504171148 | 70 | 267 | 3.5 | 7.0 | 0.00 | 0.00 | 0.00 | 29 | 1005.3 |
| 20260504170644 | 71 | 271 | 4.3 | 6.1 | 0.00 | 0.00 | 0.00 | 28 | 1005.2 |
| 20260504170142 | 70 | 236 | 1.7 | 7.8 | 0.00 | 0.00 | 0.00 | 30 | 1005.3 |
| 20260504151021 | 67 | 256 | 0.9 | 7.0 | 0.00 | 0.00 | 0.00 | 33 | 1006.3 |
| 20260504150519 | 67 | 187 | 2.6 | 7.0 | 0.00 | 0.00 | 0.00 | 33 | 1006.4 |
| 20260504140945 | 62 | 229 | 3.5 | 13.9 | 0.00 | 0.00 | 0.00 | 38 | 1007.3 |
| 20260504140442 | 62 | 196 | 6.1 | 8.7 | 0.00 | 0.00 | 0.00 | 38 | 1007.5 |
| 20260504130406 | 60 | 187 | 0.9 | 5.2 | 0.00 | 0.00 | 0.00 | 40 | 1007.7 |
| 20260504110253 | 44 | 127 | 0.0 | 0.9 | 0.00 | 0.00 | 0.00 | 66 | 1008.3 |
| 20260504100216 | 42 | 135 | 0.0 | 0.0 | 0.00 | 0.00 | 0.00 | 69 | 1008.3 |
| 20260504090139 | 41 | 189 | 0.0 | 0.0 | 0.00 | 0.00 | 0.00 | 72 | 1008.3 |
| 20260504081609 | 41 | 144 | 0.0 | 0.0 | 0.00 | 0.00 | 0.00 | 77 | 1008.3 |
| 20260504081105 | 41 | 152 | 0.0 | 0.0 | 0.00 | 0.00 | 0.00 | 76 | 1008.4 |
| 20260504080602 | 41 | 107 | 0.0 | 0.0 | 0.00 | 0.00 | 0.00 | 76 | 1008.3 |
| 20260504050415 | 34 | 130 | 0.0 | 0.0 | 0.00 | 0.00 | 0.00 | 87 | 1008.3 |
| 20260504045912 | 34 | 132 | 0.0 | 0.0 | 0.00 | 0.00 | 0.00 | 88 | 1008.3 |
| 20260504045408 | 34 | 131 | 0.0 | 0.0 | 0.00 | 0.00 | 0.00 | 88 | 1008.5 |
| 20260504044904 | 33 | 118 | 0.0 | 0.0 | 0.00 | 0.00 | 0.00 | 88 | 1008.3 |
| 20260504044401 | 33 | 131 | 0.0 | 0.0 | 0.00 | 0.00 | 0.00 | 87 | 1008.3 |
| 20260504043859 | 33 | 140 | 0.0 | 0.0 | 0.00 | 0.00 | 0.00 | 87 | 1008.4 |
| 20260504043356 | 33 | 141 | 0.0 | 0.0 | 0.00 | 0.00 | 0.00 | 87 | 1008.3 |
| 20260504042853 | 33 | 139 | 0.0 | 0.0 | 0.00 | 0.00 | 0.00 | 87 | 1008.5 |
| 20260504042349 | 33 | 152 | 0.0 | 0.0 | 0.00 | 0.00 | 0.00 | 87 | 1008.4 |
| 20260504041846 | 33 | 111 | 0.0 | 0.0 | 0.00 | 0.00 | 0.00 | 86 | 1008.4 |
| 20260504041342 | 33 | 111 | 0.0 | 0.0 | 0.00 | 0.00 | 0.00 | 86 | 1008.4 |
| 20260504040838 | 33 | 111 | 0.0 | 0.0 | 0.00 | 0.00 | 0.00 | 86 | 1008.2 |
| 20260504040336 | 34 | 121 | 0.0 | 0.0 | 0.00 | 0.00 | 0.00 | 85 | 1008.2 |
| 20260504035831 | 34 | 121 | 0.0 | 0.0 | 0.00 | 0.01 | 0.01 | 85 | 1008.1 |
| 20260504035330 | 34 | 123 | 0.0 | 0.0 | 0.00 | 0.01 | 0.01 | 84 | 1008.4 |
| 20260504034826 | 34 | 111 | 0.0 | 0.0 | 0.00 | 0.01 | 0.01 | 84 | 1008.2 |
| 20260504034324 | 34 | 110 | 0.0 | 0.0 | 0.00 | 0.01 | 0.01 | 83 | 1008.2 |
| 20260504033821 | 34 | 110 | 0.0 | 0.0 | 0.00 | 0.01 | 0.01 | 83 | 1008.2 |
| 20260504033319 | 35 | 110 | 0.0 | 0.0 | 0.00 | 0.01 | 0.01 | 82 | 1008.0 |
| 20260504032815 | 35 | 112 | 0.0 | 0.0 | 0.00 | 0.01 | 0.01 | 82 | 1008.1 |
| 20260504032312 | 35 | 113 | 0.0 | 0.0 | 0.00 | 0.01 | 0.01 | 81 | 1008.1 |
| 20260504031809 | 35 | 110 | 0.0 | 0.0 | 0.00 | 0.01 | 0.01 | 81 | 1008.3 |
| 20260504031306 | 35 | 110 | 0.0 | 0.0 | 0.00 | 0.01 | 0.01 | 80 | 1008.2 |
| 20260504030803 | 35 | 108 | 0.0 | 0.0 | 0.00 | 0.01 | 0.01 | 80 | 1008.1 |
| 20260504030300 | 36 | 106 | 0.0 | 0.0 | 0.00 | 0.01 | 0.01 | 79 | 1008.3 |
| 20260504025756 | 36 | 118 | 0.0 | 0.0 | 0.00 | 0.01 | 0.01 | 79 | 1008.1 |
| 20260504025253 | 36 | 130 | 0.0 | 0.0 | 0.00 | 0.01 | 0.01 | 79 | 1008.2 |
| 20260504024749 | 36 | 114 | 0.0 | 0.0 | 0.00 | 0.01 | 0.01 | 78 | 1008.2 |
| 20260504024246 | 36 | 123 | 0.0 | 0.0 | 0.00 | 0.01 | 0.01 | 78 | 1008.2 |
| 20260504023743 | 36 | 124 | 0.0 | 0.0 | 0.00 | 0.01 | 0.01 | 78 | 1007.9 |
| 20260504023239 | 37 | 109 | 0.0 | 0.0 | 0.00 | 0.01 | 0.01 | 77 | 1008.0 |
| 20260504022735 | 37 | 114 | 0.0 | 0.0 | 0.00 | 0.01 | 0.01 | 77 | 1008.1 |
| 20260504022232 | 37 | 114 | 0.0 | 0.0 | 0.00 | 0.01 | 0.01 | 76 | 1008.1 |
| 20260504021729 | 37 | 110 | 0.0 | 0.0 | 0.00 | 0.01 | 0.01 | 76 | 1008.0 |
| 20260504021226 | 37 | 134 | 0.0 | 0.0 | 0.00 | 0.01 | 0.01 | 75 | 1008.0 |
| 20260504020723 | 38 | 134 | 0.0 | 0.0 | 0.00 | 0.01 | 0.01 | 75 | 1008.1 |
| 20260504020219 | 38 | 117 | 0.0 | 0.0 | 0.00 | 0.01 | 0.01 | 75 | 1007.9 |
| 20260504015716 | 38 | 117 | 0.0 | 0.0 | 0.00 | 0.01 | 0.01 | 74 | 1008.0 |
| 20260504015212 | 38 | 118 | 0.0 | 0.0 | 0.00 | 0.01 | 0.01 | 74 | 1007.9 |
| 20260504014708 | 38 | 118 | 0.0 | 0.0 | 0.00 | 0.01 | 0.01 | 74 | 1008.0 |
| 20260504014205 | 39 | 117 | 0.0 | 0.0 | 0.00 | 0.01 | 0.01 | 73 | 1007.9 |
| 20260504013703 | 39 | 116 | 0.0 | 0.0 | 0.00 | 0.01 | 0.01 | 73 | 1007.8 |
| 20260504013200 | 39 | 114 | 0.0 | 0.0 | 0.00 | 0.01 | 0.01 | 72 | 1007.8 |
| 20260504012656 | 39 | 144 | 0.0 | 0.0 | 0.00 | 0.01 | 0.01 | 71 | 1007.8 |
| 20260504012154 | 40 | 111 | 0.0 | 0.0 | 0.00 | 0.01 | 0.01 | 71 | 1007.6 |
| 20260504011651 | 40 | 111 | 0.0 | 0.0 | 0.00 | 0.01 | 0.01 | 70 | 1007.7 |
| 20260504011148 | 40 | 146 | 0.0 | 0.0 | 0.00 | 0.01 | 0.01 | 70 | 1007.6 |
| 20260504010643 | 40 | 170 | 0.0 | 0.0 | 0.00 | 0.01 | 0.01 | 70 | 1007.5 |
| 20260504010139 | 41 | 145 | 0.0 | 0.0 | 0.00 | 0.01 | 0.01 | 69 | 1007.4 |
| 20260504005637 | 41 | 146 | 0.0 | 0.0 | 0.00 | 0.01 | 0.01 | 68 | 1007.5 |
| 20260504005133 | 41 | 114 | 0.0 | 0.0 | 0.00 | 0.01 | 0.01 | 67 | 1007.4 |
| 20260504004631 | 42 | 127 | 0.0 | 0.0 | 0.00 | 0.01 | 0.01 | 66 | 1007.3 |
| 20260504004128 | 43 | 211 | 0.0 | 0.9 | 0.00 | 0.01 | 0.01 | 64 | 1007.3 |
| 20260504003624 | 43 | 130 | 0.0 | 0.9 | 0.00 | 0.01 | 0.01 | 62 | 1007.1 |
| 20260504003121 | 44 | 125 | 0.0 | 0.9 | 0.00 | 0.01 | 0.01 | 58 | 1007.3 |
| 20260504002618 | 45 | 120 | 0.0 | 0.0 | 0.00 | 0.01 | 0.01 | 55 | 1007.1 |
| 20260504002116 | 46 | 132 | 0.0 | 0.0 | 0.00 | 0.01 | 0.01 | 52 | 1007.1 |
| 20260504001613 | 46 | 130 | 0.0 | 0.0 | 0.00 | 0.01 | 0.01 | 51 | 1007.0 |
| 20260504001109 | 47 | 135 | 0.0 | 0.0 | 0.00 | 0.01 | 0.01 | 49 | 1006.8 |
| 20260504000607 | 47 | 262 | 0.0 | 0.9 | 0.00 | 0.01 | 0.01 | 47 | 1006.8 |
| 20260504000104 | 48 | 183 | 0.9 | 3.5 | 0.00 | 0.01 | 0.01 | 47 | 1006.7 |
| 20260503235602 | 48 | 143 | 0.0 | 0.9 | 0.00 | 0.01 | 0.01 | 46 | 1006.8 |
| 20260503235058 | 48 | 195 | 0.9 | 1.7 | 0.00 | 0.01 | 0.01 | 45 | 1006.4 |
| 20260503234556 | 49 | 286 | 0.9 | 2.6 | 0.00 | 0.01 | 0.01 | 44 | 1006.9 |
| 20260503234054 | 49 | 214 | 1.7 | 7.8 | 0.00 | 0.01 | 0.01 | 43 | 1006.8 |
| 20260503233550 | 49 | 240 | 0.9 | 1.7 | 0.00 | 0.01 | 0.01 | 43 | 1006.6 |
| 20260503233046 | 49 | 317 | 2.6 | 6.1 | 0.00 | 0.01 | 0.01 | 42 | 1006.6 |
| 20260503232544 | 50 | 270 | 3.5 | 3.5 | 0.00 | 0.01 | 0.01 | 42 | 1006.4 |